Location: Julian California
(33.0790°N, 116.6010°W)
Time: 12:30:05
(UTC-07:00)

Cosmos 2341 Rocket - Pass Details

Date: 12 July 2018
Orbit: 967 x 1005 km, 82.9° (Epoch: 20 September)

Event Time Altitude Azimuth Distance (km) Brightness Sun altitude
Rises 22:41:55 0° 351° (N) 3,735 8.1 -26.9°
Reaches altitude 10° 22:44:28 10° 349° (N) 2,781 7.2 -27.2°
Maximum altitude 22:50:50 72° 267° (W) 1,051 4.1 -27.9°
Enters shadow 22:51:56 59° 211° (SSW) 1,142 4.1 -28.1°
